SAS612 ENGM-ENKR

Flight info

Callsign SAS612
Flight time 2h 0m
Altitude 37000
Route RIBBE DCT EGAGO DCT ETSON DCT ENOXI DCT RIDVI DCT SIVNU
Aircraft A320/M-SDE3FGHIRWY/LB1

Departure

Time 2026-04-16 12:48
Airport Oslo-Gardermoen International Airport (ENGM)

Arrival

Time 2026-04-16 14:48
Airport Kirkenes Airport, Høybuktmoen (ENKR)
Time Latitude Longitude Altitude Speed Heading
2026-04-16 12:23 60.19573 11.09350 691 ft 0 kts 196°
2026-04-16 12:40 60.19573 11.09351 691 ft 1 kts 196°
2026-04-16 12:40 60.19596 11.09364 684 ft 4 kts 197°
2026-04-16 12:40 60.19620 11.09378 691 ft 5 kts 197°
2026-04-16 12:44 60.19619 11.09377 691 ft 1 kts 204°
2026-04-16 12:44 60.19636 11.09348 691 ft 10 kts 339°
2026-04-16 12:44 60.19701 11.09260 691 ft 13 kts 285°
2026-04-16 12:45 60.19728 11.09059 691 ft 17 kts 286°
2026-04-16 12:45 60.19765 11.08801 683 ft 22 kts 286°
2026-04-16 12:45 60.19849 11.08712 682 ft 16 kts 17°
2026-04-16 12:45 60.19966 11.08780 679 ft 22 kts 15°
2026-04-16 12:46 60.20120 11.08868 683 ft 23 kts 16°
2026-04-16 12:46 60.20277 11.08958 683 ft 24 kts 16°
2026-04-16 12:46 60.20438 11.09054 682 ft 22 kts 15°
2026-04-16 12:46 60.20586 11.09136 681 ft 18 kts 14°
2026-04-16 12:47 60.20650 11.09032 680 ft 14 kts 285°
2026-04-16 12:47 60.20675 11.08844 680 ft 15 kts 285°
2026-04-16 12:47 60.20702 11.08656 683 ft 8 kts 274°
2026-04-16 12:47 60.20657 11.08617 683 ft 8 kts 195°
2026-04-16 12:48 60.20510 11.08533 683 ft 52 kts 196°
2026-04-16 12:48 60.19943 11.08206 683 ft 114 kts 196°
2026-04-16 12:48 60.19020 11.07674 740 ft 154 kts 195°
2026-04-16 12:48 60.18019 11.07063 1376 ft 149 kts 196°
2026-04-16 12:49 60.17047 11.06341 1967 ft 151 kts 207°
2026-04-16 12:49 60.16208 11.04869 2202 ft 175 kts 233°
2026-04-16 12:49 60.15664 11.02533 2475 ft 195 kts 245°
2026-04-16 12:49 60.15112 10.99906 2698 ft 220 kts 244°
2026-04-16 12:50 60.14481 10.96928 3025 ft 244 kts 249°
2026-04-16 12:50 60.14293 10.93419 3484 ft 264 kts 277°
2026-04-16 12:50 60.14641 10.89763 4265 ft 269 kts 280°
2026-04-16 12:50 60.14997 10.86051 5115 ft 273 kts 280°
2026-04-16 12:51 60.15687 10.82488 5905 ft 279 kts 306°
2026-04-16 12:51 60.17163 10.80025 6656 ft 284 kts 337°
2026-04-16 12:51 60.19093 10.79184 7409 ft 286 kts 355°
2026-04-16 12:51 60.21090 10.79081 8162 ft 289 kts
2026-04-16 12:52 60.23037 10.80078 8890 ft 290 kts 25°
2026-04-16 12:52 60.24781 10.82115 9599 ft 291 kts 41°
2026-04-16 12:52 60.26249 10.84948 10288 ft 294 kts 49°
2026-04-16 12:52 60.27719 10.87974 10609 ft 314 kts 48°
2026-04-16 12:53 60.29304 10.91213 10797 ft 335 kts 47°
2026-04-16 12:53 60.30971 10.94598 11312 ft 343 kts 47°
2026-04-16 12:53 60.32667 10.98032 11935 ft 348 kts 47°
2026-04-16 12:53 60.34382 11.01509 12548 ft 352 kts 47°
2026-04-16 12:54 60.36113 11.05029 13174 ft 355 kts 47°
2026-04-16 12:54 60.37851 11.08585 13811 ft 357 kts 47°
2026-04-16 12:54 60.39599 11.12178 14439 ft 360 kts 47°
2026-04-16 12:54 60.41360 11.15805 15058 ft 362 kts 48°
2026-04-16 12:55 60.43155 11.19402 15634 ft 365 kts 43°
2026-04-16 12:55 60.45227 11.22436 16197 ft 371 kts 32°
2026-04-16 12:55 60.47584 11.24634 16737 ft 376 kts 21°
2026-04-16 12:55 60.50065 11.26359 17277 ft 379 kts 20°
2026-04-16 12:56 60.52567 11.28111 17822 ft 382 kts 21°
2026-04-16 12:56 60.55081 11.29893 18354 ft 384 kts 21°
2026-04-16 12:56 60.57611 11.31704 18880 ft 387 kts 21°
2026-04-16 12:56 60.60165 11.33531 19405 ft 390 kts 21°
2026-04-16 12:57 60.62704 11.35344 19930 ft 393 kts 21°
2026-04-16 12:57 60.65332 11.37228 20469 ft 396 kts 21°
2026-04-16 12:57 60.67905 11.39077 20971 ft 399 kts 21°
2026-04-16 12:57 60.70531 11.40963 21468 ft 402 kts 21°
2026-04-16 12:58 60.73182 11.42855 21945 ft 405 kts 20°
2026-04-16 12:58 60.75940 11.44164 22390 ft 410 kts
2026-04-16 12:58 60.78801 11.44650 22836 ft 414 kts
2026-04-16 12:58 60.81685 11.45009 23261 ft 417 kts
2026-04-16 12:59 60.84590 11.45361 23719 ft 419 kts
2026-04-16 12:59 60.87509 11.45715 24120 ft 422 kts
2026-04-16 12:59 60.90452 11.46075 24533 ft 424 kts
2026-04-16 13:00 60.96376 11.46795 25343 ft 428 kts
2026-04-16 13:00 60.99354 11.47162 25729 ft 430 kts
2026-04-16 13:00 61.02352 11.47541 26096 ft 433 kts
2026-04-16 13:00 61.05362 11.47926 26469 ft 435 kts
2026-04-16 13:01 61.08385 11.48298 26826 ft 436 kts
2026-04-16 13:01 61.11428 11.48488 27169 ft 439 kts
2026-04-16 13:01 61.14488 11.48509 27506 ft 441 kts
2026-04-16 13:01 61.17565 11.48438 27839 ft 443 kts
2026-04-16 13:02 61.20652 11.48347 28156 ft 445 kts
2026-04-16 13:02 61.23755 11.48269 28484 ft 447 kts
2026-04-16 13:02 61.26868 11.48222 28803 ft 448 kts
2026-04-16 13:02 61.29988 11.48247 29098 ft 450 kts
2026-04-16 13:03 61.33082 11.49103 29389 ft 448 kts 15°
2026-04-16 13:03 61.36047 11.51074 29677 ft 447 kts 25°
2026-04-16 13:03 61.38802 11.54040 29987 ft 445 kts 35°
2026-04-16 13:03 61.41229 11.57840 30396 ft 440 kts 45°
2026-04-16 13:04 61.43330 11.62417 30779 ft 436 kts 52°
2026-04-16 13:04 61.45317 11.67213 31167 ft 435 kts 52°
2026-04-16 13:04 61.47321 11.72059 31554 ft 434 kts 52°
2026-04-16 13:04 61.49265 11.76772 31931 ft 434 kts 52°
2026-04-16 13:05 61.51260 11.81619 32325 ft 433 kts 52°
2026-04-16 13:05 61.53195 11.86319 32702 ft 432 kts 52°
2026-04-16 13:05 61.55157 11.91085 33074 ft 431 kts 51°
2026-04-16 13:05 61.57109 11.95845 33441 ft 430 kts 52°
2026-04-16 13:06 61.59054 12.00611 33811 ft 429 kts 52°
2026-04-16 13:06 61.60992 12.05382 34175 ft 428 kts 52°
2026-04-16 13:06 61.62919 12.10142 34496 ft 428 kts 51°
2026-04-16 13:06 61.64853 12.14905 34770 ft 428 kts 51°
2026-04-16 13:07 61.66818 12.19617 35028 ft 429 kts 47°
2026-04-16 13:07 61.69063 12.23785 35274 ft 432 kts 38°
2026-04-16 13:07 61.71535 12.27407 35491 ft 433 kts 36°
2026-04-16 13:07 61.74017 12.31010 35741 ft 434 kts 36°
2026-04-16 13:08 61.76506 12.34630 35984 ft 434 kts 36°
2026-04-16 13:08 61.78994 12.38258 36212 ft 435 kts 36°
2026-04-16 13:08 61.81483 12.41895 36432 ft 435 kts 36°
2026-04-16 13:08 61.83975 12.45546 36652 ft 435 kts 36°
2026-04-16 13:09 61.86458 12.49188 36952 ft 433 kts 36°
2026-04-16 13:09 61.88927 12.52821 37159 ft 431 kts 36°
2026-04-16 13:09 61.91393 12.56470 37205 ft 435 kts 36°
2026-04-16 13:10 61.96383 12.63885 37203 ft 439 kts 36°
2026-04-16 13:10 62.01404 12.71336 37202 ft 440 kts 36°
2026-04-16 13:11 62.06388 12.78755 37201 ft 440 kts 36°
2026-04-16 13:11 62.11387 12.86245 37204 ft 439 kts 37°
2026-04-16 13:12 62.16384 12.93778 37210 ft 440 kts 37°
2026-04-16 13:12 62.21380 13.01319 37214 ft 439 kts 37°
2026-04-16 13:13 62.26374 13.08892 37220 ft 440 kts 37°
2026-04-16 13:13 62.31359 13.16502 37221 ft 439 kts 37°
2026-04-16 13:14 62.36337 13.24128 37224 ft 439 kts 37°
2026-04-16 13:14 62.41314 13.31768 37222 ft 439 kts 37°
2026-04-16 13:15 62.46286 13.39419 37221 ft 439 kts 37°
2026-04-16 13:15 62.51252 13.47104 37220 ft 439 kts 37°
2026-04-16 13:16 62.56212 13.54822 37222 ft 439 kts 37°
2026-04-16 13:16 62.61162 13.62562 37221 ft 438 kts 37°
2026-04-16 13:17 62.66097 13.70321 37220 ft 438 kts 37°
2026-04-16 13:17 62.70998 13.78050 37221 ft 438 kts 37°
2026-04-16 13:18 62.75935 13.85841 37225 ft 438 kts 37°
2026-04-16 13:18 62.80863 13.93657 37229 ft 438 kts 37°
2026-04-16 13:19 62.85787 14.01504 37230 ft 438 kts 38°
2026-04-16 13:19 62.90693 14.09379 37233 ft 437 kts 38°
2026-04-16 13:20 62.95600 14.17289 37231 ft 437 kts 38°
2026-04-16 13:20 63.00501 14.25209 37235 ft 437 kts 38°
2026-04-16 13:21 63.05396 14.33142 37239 ft 437 kts 38°
2026-04-16 13:21 63.10278 14.41098 37234 ft 436 kts 38°
2026-04-16 13:22 63.15158 14.49091 37236 ft 436 kts 38°
2026-04-16 13:22 63.20030 14.57101 37235 ft 436 kts 38°
2026-04-16 13:23 63.24862 14.65080 37239 ft 436 kts 38°
2026-04-16 13:23 63.29720 14.73115 37233 ft 436 kts 38°
2026-04-16 13:24 63.34574 14.81182 37238 ft 435 kts 38°
2026-04-16 13:24 63.39417 14.89277 37238 ft 435 kts 38°
2026-04-16 13:25 63.44257 14.97410 37244 ft 435 kts 38°
2026-04-16 13:25 63.49084 15.05563 37247 ft 435 kts 38°
2026-04-16 13:26 63.53913 15.13747 37248 ft 435 kts 38°
2026-04-16 13:26 63.58731 15.21929 37249 ft 435 kts 38°
2026-04-16 13:27 63.62731 15.28768 37254 ft 434 kts 38°
2026-04-16 13:27 63.67531 15.37012 37257 ft 434 kts 38°
2026-04-16 13:28 63.72324 15.45269 37258 ft 434 kts 38°
2026-04-16 13:28 63.77113 15.53542 37258 ft 433 kts 39°
2026-04-16 13:29 63.81888 15.61838 37259 ft 433 kts 39°
2026-04-16 13:29 63.86661 15.70160 37262 ft 433 kts 39°
2026-04-16 13:30 63.91430 15.78524 37267 ft 433 kts 39°
2026-04-16 13:30 63.96191 15.86909 37272 ft 433 kts 39°
2026-04-16 13:31 64.00951 15.95320 37275 ft 433 kts 39°
2026-04-16 13:31 64.05701 16.03771 37276 ft 433 kts 39°
2026-04-16 13:32 64.10415 16.12179 37281 ft 433 kts 39°
2026-04-16 13:32 64.15188 16.20723 37285 ft 433 kts 39°
2026-04-16 13:33 64.19916 16.29251 37288 ft 433 kts 39°
2026-04-16 13:33 64.24617 16.37752 37288 ft 433 kts 39°
2026-04-16 13:34 64.29342 16.46326 37290 ft 432 kts 39°
2026-04-16 13:34 64.34058 16.54923 37294 ft 432 kts 39°
2026-04-16 13:35 64.38762 16.63549 37296 ft 432 kts 39°
2026-04-16 13:35 64.43457 16.72201 37299 ft 432 kts 39°
2026-04-16 13:36 64.48151 16.80880 37298 ft 431 kts 39°
2026-04-16 13:36 64.52831 16.89576 37301 ft 431 kts 39°
2026-04-16 13:37 64.57502 16.98303 37296 ft 431 kts 39°
2026-04-16 13:37 64.62173 17.07040 37296 ft 430 kts 39°
2026-04-16 13:38 64.66829 17.15793 37300 ft 430 kts 39°
2026-04-16 13:38 64.71472 17.24582 37296 ft 429 kts 39°
2026-04-16 13:39 64.76106 17.33405 37290 ft 429 kts 39°
2026-04-16 13:39 64.80735 17.42242 37291 ft 429 kts 39°
2026-04-16 13:40 64.85365 17.51105 37292 ft 429 kts 39°
2026-04-16 13:40 64.89961 17.59943 37294 ft 429 kts 39°
2026-04-16 13:41 64.94573 17.68887 37294 ft 429 kts 39°
2026-04-16 13:41 64.99225 17.77731 37298 ft 429 kts 37°
2026-04-16 13:42 65.03924 17.86290 37273 ft 428 kts 37°
2026-04-16 13:42 65.08636 17.94867 37274 ft 427 kts 37°
2026-04-16 13:43 65.13234 18.03361 37275 ft 427 kts 37°
2026-04-16 13:43 65.17900 18.12080 37276 ft 427 kts 37°
2026-04-16 13:44 65.22569 18.20820 37279 ft 427 kts 37°
2026-04-16 13:44 65.27234 18.29577 37285 ft 427 kts 37°
2026-04-16 13:45 65.31897 18.38398 37288 ft 427 kts 37°
2026-04-16 13:45 65.36556 18.47255 37294 ft 427 kts 37°
2026-04-16 13:46 65.41208 18.56122 37294 ft 427 kts 37°
2026-04-16 13:46 65.45826 18.64973 37293 ft 427 kts 37°
2026-04-16 13:47 65.50460 18.73914 37291 ft 427 kts 37°
2026-04-16 13:47 65.55087 18.82881 37290 ft 427 kts 37°
2026-04-16 13:48 65.59720 18.91881 37291 ft 427 kts 37°
2026-04-16 13:48 65.64348 19.00903 37293 ft 427 kts 37°
2026-04-16 13:49 65.68967 19.09953 37293 ft 427 kts 37°
2026-04-16 13:49 65.73586 19.19050 37292 ft 427 kts 37°
2026-04-16 13:50 65.78197 19.28169 37292 ft 427 kts 37°
2026-04-16 13:50 65.82797 19.37340 37297 ft 427 kts 37°
2026-04-16 13:51 65.87397 19.46527 37301 ft 427 kts 37°
2026-04-16 13:51 65.91987 19.55753 37306 ft 427 kts 37°
2026-04-16 13:52 65.96541 19.64950 37308 ft 427 kts 37°
2026-04-16 13:52 66.01116 19.74220 37307 ft 427 kts 37°
2026-04-16 13:53 66.05683 19.83531 37307 ft 427 kts 37°
2026-04-16 13:53 66.10249 19.92888 37309 ft 427 kts 37°
2026-04-16 13:54 66.14806 20.02269 37309 ft 427 kts 37°
2026-04-16 13:54 66.19354 20.11686 37308 ft 426 kts 37°
2026-04-16 13:55 66.23898 20.21123 37310 ft 426 kts 37°
2026-04-16 13:55 66.28438 20.30592 37312 ft 426 kts 37°
2026-04-16 13:56 66.32973 20.40108 37314 ft 427 kts 37°
2026-04-16 13:56 66.37503 20.49670 37314 ft 427 kts 37°
2026-04-16 13:57 66.42024 20.59274 37314 ft 427 kts 37°
2026-04-16 13:57 66.46549 20.68898 37315 ft 427 kts 37°
2026-04-16 13:58 66.53335 20.83416 37319 ft 428 kts 37°
2026-04-16 13:58 66.57856 20.93153 37321 ft 428 kts 37°
2026-04-16 13:59 66.62338 21.02864 37321 ft 428 kts 37°
2026-04-16 13:59 66.66844 21.12677 37320 ft 428 kts 37°
2026-04-16 14:00 66.71347 21.22512 37319 ft 428 kts 37°
2026-04-16 14:00 66.75843 21.32381 37317 ft 428 kts 37°
2026-04-16 14:01 66.80324 21.42313 37317 ft 428 kts 37°
2026-04-16 14:01 66.84800 21.52298 37316 ft 428 kts 37°
2026-04-16 14:02 66.89274 21.62293 37316 ft 428 kts 37°
2026-04-16 14:02 66.93707 21.72433 37317 ft 429 kts 39°
2026-04-16 14:03 66.98060 21.82878 37316 ft 429 kts 39°
2026-04-16 14:03 67.02387 21.93393 37316 ft 429 kts 39°
2026-04-16 14:04 67.06733 22.03892 37318 ft 429 kts 39°
2026-04-16 14:04 67.11073 22.14402 37317 ft 429 kts 39°
2026-04-16 14:05 67.15405 22.24976 37317 ft 429 kts 39°
2026-04-16 14:05 67.19733 22.35598 37318 ft 430 kts 39°
2026-04-16 14:06 67.24053 22.46258 37320 ft 430 kts 39°
2026-04-16 14:06 67.28342 22.56881 37322 ft 430 kts 39°
2026-04-16 14:07 67.32662 22.67625 37323 ft 431 kts 39°
2026-04-16 14:07 67.36974 22.78417 37324 ft 431 kts 39°
2026-04-16 14:08 67.41278 22.89236 37322 ft 431 kts 39°
2026-04-16 14:08 67.45576 23.00114 37320 ft 431 kts 40°
2026-04-16 14:09 67.49855 23.11041 37317 ft 431 kts 40°
2026-04-16 14:09 67.54142 23.21995 37317 ft 431 kts 40°
2026-04-16 14:10 67.58419 23.32974 37318 ft 431 kts 40°
2026-04-16 14:10 67.62687 23.44036 37318 ft 431 kts 40°
2026-04-16 14:11 67.66955 23.55125 37316 ft 431 kts 40°
2026-04-16 14:11 67.71216 23.66258 37316 ft 432 kts 40°
2026-04-16 14:12 67.75468 23.77439 37321 ft 432 kts 40°
2026-04-16 14:12 67.79721 23.88656 37324 ft 432 kts 40°
2026-04-16 14:13 67.83959 23.99929 37326 ft 432 kts 40°
2026-04-16 14:13 67.88190 24.11258 37328 ft 432 kts 40°
2026-04-16 14:14 67.92420 24.22610 37330 ft 432 kts 40°
2026-04-16 14:14 67.96640 24.34021 37331 ft 433 kts 40°
2026-04-16 14:15 68.00854 24.45477 37329 ft 433 kts 40°
2026-04-16 14:15 68.05065 24.56952 37328 ft 433 kts 40°
2026-04-16 14:16 68.09277 24.68488 37325 ft 433 kts 40°
2026-04-16 14:16 68.13450 24.79995 37324 ft 434 kts 40°
2026-04-16 14:17 68.17643 24.91648 37321 ft 434 kts 41°
2026-04-16 14:17 68.21834 25.03364 37318 ft 435 kts 41°
2026-04-16 14:18 68.26027 25.15156 37316 ft 436 kts 41°
2026-04-16 14:18 68.30221 25.26993 37314 ft 436 kts 41°
2026-04-16 14:19 68.33703 25.36878 37310 ft 437 kts 41°
2026-04-16 14:19 68.37897 25.48830 37307 ft 438 kts 41°
2026-04-16 14:20 68.42079 25.60839 37306 ft 438 kts 41°
2026-04-16 14:20 68.46262 25.72928 37303 ft 439 kts 41°
2026-04-16 14:21 68.50396 25.84958 37301 ft 439 kts 41°
2026-04-16 14:21 68.54576 25.97151 37303 ft 440 kts 41°
2026-04-16 14:22 68.58753 26.09393 37301 ft 440 kts 42°
2026-04-16 14:22 68.62916 26.21695 37301 ft 441 kts 42°
2026-04-16 14:23 68.67079 26.34064 37214 ft 442 kts 42°
2026-04-16 14:23 68.69163 26.40268 36737 ft 442 kts 42°
2026-04-16 14:23 68.71250 26.46511 36047 ft 444 kts 42°
2026-04-16 14:24 68.73340 26.52799 35362 ft 446 kts 42°
2026-04-16 14:24 68.75415 26.59076 34931 ft 441 kts 41°
2026-04-16 14:24 68.77469 26.65309 34433 ft 438 kts 41°
2026-04-16 14:24 68.79507 26.71503 33954 ft 435 kts 41°
2026-04-16 14:25 68.81534 26.77667 33475 ft 432 kts 41°
2026-04-16 14:25 68.83547 26.83788 32973 ft 429 kts 40°
2026-04-16 14:25 68.85519 26.89806 32502 ft 426 kts 40°
2026-04-16 14:25 68.87493 26.95861 32013 ft 422 kts 40°
2026-04-16 14:26 68.89451 27.01887 31534 ft 418 kts 40°
2026-04-16 14:26 68.91387 27.07857 31062 ft 414 kts 40°
2026-04-16 14:26 68.93303 27.13771 30593 ft 409 kts 39°
2026-04-16 14:26 68.95195 27.19623 30139 ft 404 kts 39°
2026-04-16 14:27 68.97061 27.25419 29699 ft 400 kts 39°
2026-04-16 14:27 68.98905 27.31160 29258 ft 395 kts 39°
2026-04-16 14:27 69.00724 27.36843 28828 ft 390 kts 39°
2026-04-16 14:27 69.02518 27.42468 28411 ft 386 kts 39°
2026-04-16 14:28 69.04285 27.48038 28020 ft 381 kts 39°
2026-04-16 14:28 69.06034 27.53552 27618 ft 377 kts 39°
2026-04-16 14:28 69.07764 27.59006 27237 ft 373 kts 39°
2026-04-16 14:28 69.09475 27.64411 26852 ft 370 kts 40°
2026-04-16 14:29 69.11171 27.69800 26473 ft 367 kts 40°
2026-04-16 14:29 69.12847 27.75144 26085 ft 364 kts 40°
2026-04-16 14:29 69.14513 27.80456 25703 ft 362 kts 40°
2026-04-16 14:29 69.16168 27.85738 25309 ft 360 kts 40°
2026-04-16 14:30 69.17815 27.91012 24900 ft 358 kts 40°
2026-04-16 14:30 69.19449 27.96261 24506 ft 356 kts 41°
2026-04-16 14:30 69.21071 28.01502 24097 ft 354 kts 41°
2026-04-16 14:30 69.22659 28.06648 23684 ft 352 kts 42°
2026-04-16 14:31 69.24259 28.11842 23258 ft 350 kts 42°
2026-04-16 14:31 69.25851 28.17016 22846 ft 348 kts 42°
2026-04-16 14:31 69.27433 28.22152 22431 ft 346 kts 43°
2026-04-16 14:31 69.29004 28.27258 22015 ft 343 kts 43°
2026-04-16 14:32 69.30563 28.32337 21606 ft 341 kts 43°
2026-04-16 14:32 69.32106 28.37385 21194 ft 338 kts 43°
2026-04-16 14:32 69.33637 28.42423 20775 ft 336 kts 44°
2026-04-16 14:32 69.35149 28.47434 20363 ft 334 kts 44°
2026-04-16 14:33 69.36654 28.52418 19957 ft 331 kts 44°
2026-04-16 14:33 69.38146 28.57359 19556 ft 329 kts 44°
2026-04-16 14:33 69.39631 28.62278 19145 ft 327 kts 45°
2026-04-16 14:33 69.41091 28.67198 18737 ft 325 kts 45°
2026-04-16 14:34 69.42535 28.72140 18326 ft 324 kts 46°
2026-04-16 14:34 69.43966 28.77054 17916 ft 322 kts 46°
2026-04-16 14:34 69.45388 28.81951 17519 ft 320 kts 46°
2026-04-16 14:34 69.46805 28.86828 17110 ft 319 kts 46°
2026-04-16 14:35 69.48213 28.91685 16709 ft 317 kts 46°
2026-04-16 14:35 69.49612 28.96521 16312 ft 315 kts 46°
2026-04-16 14:35 69.51002 29.01335 15910 ft 314 kts 46°
2026-04-16 14:35 69.52391 29.06152 15517 ft 313 kts 47°
2026-04-16 14:36 69.53767 29.10943 15124 ft 311 kts 47°
2026-04-16 14:36 69.55122 29.15666 14728 ft 311 kts 47°
2026-04-16 14:36 69.56506 29.20504 14333 ft 309 kts 47°
2026-04-16 14:36 69.57829 29.25235 13954 ft 308 kts 49°
2026-04-16 14:37 69.59092 29.30209 13566 ft 309 kts 51°
2026-04-16 14:37 69.60304 29.35270 13180 ft 308 kts 52°
2026-04-16 14:37 69.61495 29.40361 12796 ft 307 kts 53°
2026-04-16 14:37 69.62683 29.45463 12396 ft 307 kts 53°
2026-04-16 14:38 69.63866 29.50530 12021 ft 305 kts 53°
2026-04-16 14:38 69.65049 29.55580 11689 ft 303 kts 53°
2026-04-16 14:38 69.66206 29.60521 11563 ft 292 kts 53°
2026-04-16 14:38 69.67324 29.65314 11005 ft 288 kts 53°
2026-04-16 14:39 69.68429 29.70036 10548 ft 280 kts 53°
2026-04-16 14:39 69.69515 29.74661 10188 ft 279 kts 52°
2026-04-16 14:39 69.70603 29.79296 9832 ft 279 kts 52°
2026-04-16 14:39 69.71710 29.83892 9476 ft 278 kts 48°
2026-04-16 14:40 69.73061 29.87802 9126 ft 274 kts 35°
2026-04-16 14:40 69.74649 29.90755 8778 ft 271 kts 27°
2026-04-16 14:40 69.76277 29.93514 8428 ft 271 kts 28°
2026-04-16 14:40 69.77900 29.96300 8070 ft 271 kts 28°
2026-04-16 14:41 69.79519 29.99098 7651 ft 273 kts 28°
2026-04-16 14:41 69.81131 30.01894 7377 ft 265 kts 28°
2026-04-16 14:41 69.82709 30.04643 6849 ft 262 kts 28°
2026-04-16 14:41 69.84164 30.07723 6483 ft 260 kts 41°
2026-04-16 14:42 69.85282 30.11868 6188 ft 261 kts 58°
2026-04-16 14:42 69.85951 30.16699 6064 ft 256 kts 74°
2026-04-16 14:42 69.86315 30.21685 5931 ft 247 kts 75°
2026-04-16 14:42 69.86588 30.26493 5851 ft 238 kts 88°
2026-04-16 14:43 69.86232 30.31075 5758 ft 233 kts 116°
2026-04-16 14:43 69.85192 30.34689 5427 ft 238 kts 146°
2026-04-16 14:43 69.83686 30.36697 5055 ft 241 kts 161°
2026-04-16 14:43 69.82098 30.38349 4673 ft 243 kts 164°
2026-04-16 14:44 69.80485 30.38631 4308 ft 232 kts 197°
2026-04-16 14:44 69.79108 30.36587 3949 ft 218 kts 228°
2026-04-16 14:44 69.78296 30.33117 3662 ft 203 kts 252°
2026-04-16 14:44 69.77813 30.29411 3415 ft 191 kts 254°
2026-04-16 14:45 69.77362 30.25899 3102 ft 180 kts 254°
2026-04-16 14:45 69.76937 30.22610 2838 ft 171 kts 254°
2026-04-16 14:45 69.76529 30.19470 2581 ft 162 kts 253°
2026-04-16 14:45 69.76147 30.16535 2359 ft 150 kts 253°
2026-04-16 14:46 69.75793 30.13819 2149 ft 140 kts 253°
2026-04-16 14:46 69.75454 30.11222 1942 ft 137 kts 253°
2026-04-16 14:46 69.75122 30.08671 1732 ft 135 kts 253°
2026-04-16 14:46 69.74793 30.06143 1498 ft 134 kts 253°
2026-04-16 14:47 69.74463 30.03631 1324 ft 134 kts 252°
2026-04-16 14:47 69.74136 30.01123 1097 ft 133 kts 252°
2026-04-16 14:47 69.73817 29.98613 918 ft 133 kts 252°
2026-04-16 14:47 69.73479 29.96123 719 ft 133 kts 252°
2026-04-16 14:48 69.73153 29.93615 512 ft 133 kts 252°
2026-04-16 14:48 69.72823 29.91122 321 ft 133 kts 251°
2026-04-16 14:48 69.72545 29.89007 300 ft 77 kts 248°
2026-04-16 14:48 69.72424 29.88120 295 ft 24 kts 247°
2026-04-16 14:49 69.72344 29.87987 298 ft 15 kts 157°
2026-04-16 14:49 69.72255 29.88098 296 ft 14 kts 158°
2026-04-16 14:49 69.72191 29.88149 294 ft 3 kts 163°
2026-04-16 14:49 69.72178 29.88160 294 ft 0 kts 162°